Aurora, CO

2:25 AM MDT on May 22, 2018 (GMT -0600)
Buckley Air Force Base

Weather History for KBKF - March, 2014

Change the Weather History Date:

Thursday, March 27, 2014

  Actual Average Record
Temperature  
Mean Temperature 44 °F -  
Max Temperature 55 °F 55 °F 69 °F (2012)
Min Temperature 32 °F 29 °F 10 °F (2009)
Degree Days  
Heating Degree Days 22    
Moisture  
Dew Point 21 °F    
Average Humidity 48    
Maximum Humidity 100    
Minimum Humidity 11    
Precipitation  
Precipitation 0.00 in - - ()
Sea Level Pressure  
Sea Level Pressure 29.54 in    
Wind  
Wind Speed 11 mph (NW)    
Max Wind Speed 23 mph    
Max Gust Speed 36 mph    
Visibility 10 miles    
Events      
Averages and records for this station are not official NWS values.
T = Trace of Precipitation, MM = Missing Value Source: NWS Daily Summary

Daily Weather History Graph

Daily Weather History Graph

Search for Another Location

Airport or City:

Astronomy

Mar. 27, 2014 Rise Set
Actual Time 6:51 AM MDT 7:18 PM MDT
Civil Twilight 6:24 AM MDT 7:45 PM MDT
Nautical Twilight 5:52 AM MDT 8:17 PM MDT
Astronomical Twilight 5:19 AM MDT 8:49 PM MDT
Moon 4:43 AM MDT (3/27) 4:09 PM MDT (3/27)
Length of Visible Light 13h 21m
Length of Day
12h 27m
Waning Crescent, 12% of the Moon is Illuminated
Mar 27
Waning Crescent
Mar 30
New
Apr 7
First Quarter
Apr 15
Full
Apr 22
Last Quarter

Hourly Weather History & Observations

Time (MDT) Temp. Windchill Dew Point Humidity Pressure Visibility Wind Dir Wind Speed Gust Speed Precip Events Conditions
12:55 AM 42.8 °F 37.5 °F 28.4 °F 57% 29.27 in 10.0 mi North 9.2 mph - N/A   Mostly Cloudy
1:55 AM 42.8 °F 35.4 °F 32.0 °F 66% 29.27 in 10.0 mi NE 15.0 mph - N/A   Mostly Cloudy
2:55 AM 42.8 °F 35.4 °F 32.0 °F 66% 29.27 in 10.0 mi NE 15.0 mph - N/A   Mostly Cloudy
3:55 AM 39.2 °F - 33.8 °F 81% 29.35 in 10.0 mi West 1.2 mph - N/A   Mostly Cloudy
4:55 AM 37.4 °F 33.8 °F 33.8 °F 87% 29.37 in 10.0 mi West 4.6 mph - N/A   Mostly Cloudy
5:55 AM 33.8 °F 27.7 °F 33.8 °F 100% 29.41 in 10.0 mi SE 6.9 mph - N/A   Mostly Cloudy
6:55 AM 32.0 °F 25.6 °F 32.0 °F 100% 29.48 in 70.0 mi East 6.9 mph - N/A   Mostly Cloudy
7:55 AM 35.6 °F 31.7 °F 35.6 °F 100% 29.51 in 70.0 mi ENE 4.6 mph - N/A   Mostly Cloudy
8:55 AM 39.2 °F 34.2 °F 35.6 °F 87% 29.57 in 70.0 mi NNE 6.9 mph - N/A   Mostly Cloudy
9:55 AM 41.0 °F 38.0 °F 35.6 °F 81% 29.58 in 70.0 mi NE 4.6 mph - N/A   Mostly Cloudy
10:55 AM 48.2 °F - 26.6 °F 43% 29.56 in 70.0 mi West 12.7 mph - N/A   Mostly Cloudy
11:55 AM 53.6 °F - 14.0 °F 21% 29.55 in 70.0 mi WNW 19.6 mph 32.2 mph N/A   Mostly Cloudy
12:55 PM 53.6 °F - 8.6 °F 16% 29.56 in 70.0 mi West 21.9 mph 35.7 mph N/A   Scattered Clouds
1:55 PM 55.4 °F - 8.6 °F 15% 29.56 in 70.0 mi West 19.6 mph 34.5 mph N/A   Scattered Clouds
2:55 PM 55.4 °F - 1.4 °F 11% 29.57 in 70.0 mi NW 16.1 mph 27.6 mph N/A   Scattered Clouds
3:55 PM 53.6 °F - 5.0 °F 14% 29.57 in 70.0 mi NW 12.7 mph - N/A   Scattered Clouds
4:55 PM 55.4 °F - 8.6 °F 15% 29.57 in 70.0 mi NNW 12.7 mph 20.7 mph N/A   Mostly Cloudy
5:55 PM 53.6 °F - 10.4 °F 18% 29.60 in 70.0 mi NNE 5.8 mph - N/A   Mostly Cloudy
6:55 PM 51.8 °F - 5.0 °F 15% 29.63 in 70.0 mi West 12.7 mph - N/A   Mostly Cloudy
7:55 PM 46.4 °F 38.3 °F 15.8 °F 29% 29.68 in 70.0 mi West 23.0 mph 33.4 mph N/A   Mostly Cloudy
8:55 PM 44.6 °F 40.2 °F 17.6 °F 34% 29.72 in 25.0 mi West 8.1 mph - N/A   Mostly Cloudy
9:55 PM 44.6 °F 39.7 °F 14.0 °F 29% 29.73 in 25.0 mi West 9.2 mph - N/A   Mostly Cloudy
10:55 PM 41.0 °F 35.2 °F 15.8 °F 36% 29.75 in 10.0 mi SW 9.2 mph - N/A   Mostly Cloudy
11:55 PM 41.0 °F 35.8 °F 17.6 °F 39% 29.74 in 10.0 mi West 8.1 mph - N/A   Mostly Cloudy